Flag for Canada Weather past 2 weeks in Greater Sudbury, Ontario, Canada

Now
46 °F

Passing clouds.


Feels Like: 40 °F
Forecast: N/A
Wind: 14 mph from Northeast

Location: Sudbury

Current Time: Apr 25, 2015 at 4:57:43 PM

Latest Report: Apr 25, 2015 at 4:00 PM


Visibility: 20 mi

Pressure: 29.92 "Hg

Humidity: 43%

Dew point: 25 °F

Location of Greater SudburyLocation

Historic Weather in Greater Sudbury — Graph

°F

Greater Sudbury temperature yesterday

Maximum temperature yesterday: 41 °F (at 5:00 PM)
Minimum temperature yesterday: 23 °F (at 4:00 AM)
Average temperature yesterday: 30 °F

Past Weeks' High & Low Weather Summary

 TemperatureHumidityPressure
High61 °F (Apr 17, 3:00 PM)100% (Apr 10, 5:00 PM)30.46 "Hg (Apr 10, 5:00 PM)
Low23 °F (Apr 24, 4:00 AM)18% (Apr 14, 4:00 PM)29.20 "Hg (Apr 20, 6:00 PM)
Average40 °F63%29.92 "Hg
* Reported Apr 10 3:00 PM — Apr 25 3:00 PM, Greater Sudbury, Weather by CustomWeather, © 2015

Note: Actual official high and low records may vary slightly from our data, if they occured in-between our weather recording intervals... More about our weather records

Advertising

Greater Sudbury weather history for previous 24 hours

 ConditionsComfort  
Time TempWeatherWind HumidityBarometerVisibility
3:00 PM
Sat, Apr 25
45 °FPassing clouds.13 mph49%29.95 "Hg20 mi
2:00 PM43 °FPartly sunny.8 mph49%29.97 "Hg20 mi
1:00 PM41 °FOvercast.13 mph53%30.00 "Hg20 mi
12:00 PM37 °FMore clouds than sun.12 mph60%30.01 "Hg20 mi
11:00 AM36 °FMore clouds than sun.10 mph60%30.02 "Hg20 mi
10:00 AM36 °FOvercast.8 mph56%30.02 "Hg20 mi
9:00 AM34 °FPartly sunny.7 mph60%30.01 "Hg20 mi
8:00 AM28 °FPartly sunny.5 mph74%30.03 "Hg20 mi
7:00 AM27 °FPassing clouds.5 mph74%30.03 "Hg20 mi
6:00 AM27 °FPassing clouds.6 mph69%30.01 "Hg20 mi
5:00 AM28 °FPassing clouds.9 mph69%30.01 "Hg15 mi
4:00 AM27 °FPassing clouds.6 mph74%30.02 "Hg15 mi
3:00 AM30 °FPassing clouds.3 mph64%30.03 "Hg15 mi
2:00 AM32 °FPassing clouds.7 mph60%30.04 "Hg15 mi
1:00 AM32 °FPassing clouds.5 mph60%30.05 "Hg15 mi
12:00 AM30 °FPassing clouds.5 mph64%30.05 "Hg15 mi
11:00 PM
Fri, Apr 24
34 °FPassing clouds.6 mph51%30.04 "Hg15 mi
10:00 PM34 °FPassing clouds.5 mph51%30.03 "Hg15 mi
9:00 PM37 °FScattered clouds.7 mph45%30.03 "Hg15 mi
8:00 PM39 °FPartly sunny.9 mph42%30.01 "Hg20 mi
7:00 PM39 °FPartly sunny.6 mph42%30.01 "Hg20 mi
6:00 PM41 °FPassing clouds.15 mph36%29.99 "Hg20 mi
5:00 PM41 °FPassing clouds.12 mph36%29.99 "Hg20 mi
4:00 PM39 °FPassing clouds.15 mph39%29.98 "Hg20 mi
Weather by CustomWeather, © 2015

See weather overviewHow to use our weather pages